Terug naar catalogus

SOLRAD 3/INJUN 1

ActiefWetenschapLEO
NORAD 117·PAYLOAD·🇺🇸 United States

Gelanceerd Jun 29, 1961 vanaf Cape Canaveral Space Force Station

Loading…

Volgende Passages (komende 24 uur)

TLE

VersSource: Space-Track

Epoch: Sep 14, 2026, 22:40 UTC

1 00117U 61015B   26257.94448211 -.00000016  00000-0  47520-4 0  9997
2 00117  66.8121 146.3172 0083357 237.6917 121.6070 13.90198462306537

Volg SOLRAD 3/INJUN 1 in realtime met AllMySat

Download on the App Store